When you browse on this site, cookies collect data to enhance your experience and personalize the content and advertising you see.
Visit our Privacy Policy to learn more. By continuing to use the site, you agree to this use of cookies and data.
  • In Spain
  • List of Countries
  • For 7 days
  • Water Temperature
  • Satellite Maps
  • Weather Map
  • Weather Widgets
  • user-avatar
    Login

    Hourly Weather Namibe

    Today, 17 December, Monday

    Time Temperature Precipitation Wind Pressure Humidity
    00:00 +25°C° 0 mm 1 mps 759 mmHg 78%
    01:00 +25°C° 0 mm 1 mps 759 mmHg 81%
    02:00 +25°C° 0 mm 1 mps 759 mmHg 81%
    03:00 +25°C° 0 mm 1 mps 759 mmHg 82%
    04:00 +25°C° 0 mm 1 mps 759 mmHg 82%
    05:00 +23°C° 0 mm 0 mps 759 mmHg 82%
    06:00 +23°C° 0 mm 0 mps 759 mmHg 81%
    07:00 +23°C° 0 mm 0 mps 760 mmHg 81%
    08:00 +27°C° 0 mm 1 mps 760 mmHg 73%
    09:00 +29°C° 0 mm 2 mps 760 mmHg 64%
    10:00 +31°C° 0 mm 3 mps 759 mmHg 55%
    11:00 +33°C° 0 mm 3 mps 759 mmHg 52%
    12:00 +34°C° 0 mm 4 mps 758 mmHg 49%
    13:00 +35°C° 0 mm 5 mps 758 mmHg 46%
    14:00 +34°C° 0 mm 5 mps 757 mmHg 49%
    15:00 +34°C° 0 mm 5 mps 757 mmHg 51%
    16:00 +33°C° 0 mm 5 mps 757 mmHg 53%
    17:00 +30°C° 0 mm 4 mps 757 mmHg 59%
    18:00 +29°C° 0 mm 4 mps 757 mmHg 64%
    19:00 +28°C° 0 mm 4 mps 758 mmHg 69%
    20:00 +27°C° 0 mm 3 mps 758 mmHg 72%
    21:00 +27°C° 0 mm 3 mps 759 mmHg 75%
    22:00 +26°C° 0 mm 3 mps 760 mmHg 77%
    23:00 +26°C° 0 mm 2 mps 760 mmHg 78%

    Tomorrow, 18 December, Tuesday

    Time Temperature Precipitation Wind Pressure Humidity
    00:00 +26°C° 0 mm 2 mps 759 mmHg 79%
    01:00 +25°C° 0 mm 1 mps 759 mmHg 80%
    02:00 +25°C° 0 mm 1 mps 759 mmHg 80%
    03:00 +25°C° 0 mm 1 mps 759 mmHg 80%
    04:00 +25°C° 0 mm 1 mps 759 mmHg 81%
    05:00 +25°C° 0 mm 1 mps 759 mmHg 80%
    06:00 +25°C° 0 mm 1 mps 760 mmHg 80%
    07:00 +26°C° 0 mm 1 mps 760 mmHg 79%
    08:00 +27°C° 0 mm 1 mps 760 mmHg 71%
    09:00 +29°C° 0 mm 2 mps 760 mmHg 63%
    10:00 +31°C° 0 mm 2 mps 760 mmHg 55%
    11:00 +33°C° 0 mm 3 mps 760 mmHg 49%
    12:00 +35°C° 0 mm 3 mps 759 mmHg 43%
    13:00 +36°C° 0 mm 4 mps 759 mmHg 37%
    14:00 +35°C° 0 mm 5 mps 758 mmHg 38%
    15:00 +35°C° 0 mm 5 mps 758 mmHg 40%
    16:00 +34°C° 0 mm 5 mps 757 mmHg 42%
    17:00 +32°C° 0 mm 5 mps 758 mmHg 50%
    18:00 +29°C° 0 mm 4 mps 758 mmHg 58%
    19:00 +27°C° 0 mm 4 mps 759 mmHg 66%
    20:00 +27°C° 0 mm 3 mps 759 mmHg 69%
    21:00 +27°C° 0 mm 3 mps 760 mmHg 72%
    22:00 +26°C° 0 mm 2 mps 761 mmHg 74%
    23:00 +26°C° 0 mm 3 mps 760 mmHg 76%

    Day after tomorrow, 19 December, Wednesday

    Time Temperature Precipitation Wind Pressure Humidity
    00:00 +26°C° 0 mm 3 mps 760 mmHg 77%
    01:00 +25°C° 0 mm 3 mps 760 mmHg 79%
    02:00 +25°C° 0 mm 3 mps 759 mmHg 79%
    03:00 +25°C° 0 mm 3 mps 759 mmHg 80%
    04:00 +25°C° 0 mm 2 mps 759 mmHg 81%
    05:00 +25°C° 0 mm 2 mps 759 mmHg 80%
    06:00 +25°C° 0 mm 2 mps 760 mmHg 79%
    07:00 +25°C° 0 mm 1 mps 760 mmHg 78%
    08:00 +27°C° 0 mm 2 mps 760 mmHg 69%
    09:00 +29°C° 0 mm 2 mps 760 mmHg 60%
    10:00 +30°C° 0 mm 2 mps 760 mmHg 51%
    11:00 +31°C° 0 mm 3 mps 759 mmHg 51%
    12:00 +32°C° 0 mm 4 mps 759 mmHg 51%
    13:00 +32°C° 0 mm 4 mps 758 mmHg 50%
    14:00 +32°C° 0 mm 5 mps 758 mmHg 53%
    15:00 +30°C° 0 mm 5 mps 757 mmHg 55%
    16:00 +30°C° 0 mm 5 mps 757 mmHg 57%
    17:00 +28°C° 0 mm 5 mps 757 mmHg 62%
    18:00 +27°C° 0 mm 4 mps 758 mmHg 67%
    19:00 +26°C° 0 mm 4 mps 758 mmHg 72%
    20:00 +26°C° 0 mm 4 mps 759 mmHg 73%
    21:00 +25°C° 0 mm 3 mps 759 mmHg 75%
    22:00 +25°C° 0 mm 3 mps 760 mmHg 77%
    23:00 +25°C° 0 mm 2 mps 760 mmHg 78%

    20 December, Thursday

    Time Temperature Precipitation Wind Pressure Humidity
    00:00 +24°C° 0 mm 2 mps 759 mmHg 78%
    01:00 +24°C° 0 mm 2 mps 759 mmHg 78%
    02:00 +24°C° 0 mm 2 mps 759 mmHg 79%
    03:00 +24°C° 0 mm 2 mps 758 mmHg 80%
    04:00 +24°C° 0 mm 2 mps 758 mmHg 80%
    05:00 +24°C° 0 mm 1 mps 758 mmHg 79%
    06:00 +24°C° 0 mm 1 mps 759 mmHg 78%
    07:00 +24°C° 0 mm 1 mps 759 mmHg 77%
    08:00 +26°C° 0 mm 2 mps 759 mmHg 67%
    09:00 +28°C° 0 mm 2 mps 759 mmHg 56%
    10:00 +30°C° 0 mm 2 mps 759 mmHg 46%
    11:00 +31°C° 0 mm 3 mps 758 mmHg 43%
    12:00 +34°C° 0 mm 4 mps 758 mmHg 40%
    13:00 +35°C° 0 mm 5 mps 757 mmHg 38%
    14:00 +34°C° 0 mm 5 mps 757 mmHg 39%
    15:00 +33°C° 0 mm 5 mps 757 mmHg 41%
    16:00 +32°C° 0 mm 6 mps 756 mmHg 43%
    17:00 +30°C° 0 mm 5 mps 757 mmHg 48%
    18:00 +28°C° 0 mm 5 mps 758 mmHg 53%
    19:00 +26°C° 0 mm 4 mps 758 mmHg 59%
    20:00 +26°C° 0 mm 3 mps 759 mmHg 61%
    21:00 +26°C° 0 mm 3 mps 759 mmHg 63%
    22:00 +25°C° 0 mm 2 mps 760 mmHg 64%
    23:00 +25°C° 0 mm 2 mps 760 mmHg 66%

    21 December, Friday

    Time Temperature Precipitation Wind Pressure Humidity
    00:00 +25°C° 0 mm 2 mps 759 mmHg 67%
    01:00 +25°C° 0 mm 2 mps 759 mmHg 68%
    02:00 +24°C° 0 mm 2 mps 759 mmHg 70%
    03:00 +24°C° 0 mm 2 mps 759 mmHg 73%
    04:00 +23°C° 0 mm 2 mps 759 mmHg 75%
    05:00 +24°C° 0 mm 2 mps 759 mmHg 75%
    06:00 +24°C° 0 mm 2 mps 759 mmHg 75%
    07:00 +24°C° 0 mm 2 mps 760 mmHg 75%
    08:00 +26°C° 0 mm 2 mps 760 mmHg 65%
    09:00 +28°C° 0 mm 2 mps 759 mmHg 55%
    10:00 +30°C° 0 mm 3 mps 759 mmHg 46%
    11:00 +31°C° 0 mm 3 mps 758 mmHg 43%
    12:00 +33°C° 0 mm 4 mps 758 mmHg 40%
    13:00 +34°C° 0 mm 5 mps 757 mmHg 37%
    14:00 +33°C° 0 mm 5 mps 756 mmHg 38%
    15:00 +32°C° 0 mm 6 mps 756 mmHg 40%
    16:00 +30°C° 0 mm 6 mps 756 mmHg 41%
    17:00 +29°C° 0 mm 6 mps 756 mmHg 46%
    18:00 +28°C° 0 mm 5 mps 756 mmHg 50%
    19:00 +26°C° 0 mm 5 mps 757 mmHg 55%
    20:00 +26°C° 0 mm 4 mps 757 mmHg 57%
    21:00 +25°C° 0 mm 4 mps 758 mmHg 60%
    22:00 +25°C° 0 mm 3 mps 758 mmHg 62%
    23:00 +25°C° 0 mm 3 mps 758 mmHg 64%

    22 December, Saturday

    Time Temperature Precipitation Wind Pressure Humidity
    00:00 +24°C° 0 mm 3 mps 758 mmHg 66%
    01:00 +24°C° 0 mm 3 mps 758 mmHg 68%
    02:00 +22°C° 0 mm 3 mps 758 mmHg 71%
    03:00 +22°C° 0 mm 3 mps 757 mmHg 74%
    04:00 +23°C° 0 mm 2 mps 757 mmHg 76%
    05:00 +23°C° 0 mm 2 mps 758 mmHg 76%
    06:00 +23°C° 0 mm 2 mps 758 mmHg 75%
    07:00 +23°C° 0 mm 2 mps 759 mmHg 75%
    08:00 +25°C° 0 mm 2 mps 759 mmHg 64%
    09:00 +27°C° 0 mm 3 mps 759 mmHg 53%
    10:00 +29°C° 0 mm 3 mps 758 mmHg 42%
    11:00 +30°C° 0 mm 4 mps 758 mmHg 39%
    12:00 +32°C° 0 mm 5 mps 757 mmHg 36%
    13:00 +33°C° 0 mm 5 mps 757 mmHg 32%
    14:00 +32°C° 0 mm 5 mps 756 mmHg 34%
    15:00 +32°C° 0 mm 5 mps 756 mmHg 36%
    16:00 +30°C° 0 mm 5 mps 756 mmHg 38%
    17:00 +29°C° 0 mm 5 mps 756 mmHg 45%
    18:00 +27°C° 0 mm 5 mps 757 mmHg 51%
    19:00 +26°C° 0 mm 4 mps 757 mmHg 57%
    20:00 +25°C° 0 mm 4 mps 757 mmHg 59%
    21:00 +25°C° 0 mm 3 mps 758 mmHg 62%
    22:00 +24°C° 0 mm 3 mps 758 mmHg 65%
    23:00 +24°C° 0 mm 3 mps 757 mmHg 65%
    Show more